TimePST,TemperatureF,Dew PointF,Humidity,Sea Level PressureIn,VisibilityMPH,Wind Direction,Wind SpeedMPH,Gust SpeedMPH,PrecipitationIn,Events,Conditions,WindDirDegrees,DateUTC
12:15 AM,39.2,39.2,100,30.30,10.0,Calm,Calm,-,N/A,,Scattered Clouds,0,2013-12-01 08:15:00
12:35 AM,39.2,39.2,100,30.29,10.0,Calm,Calm,-,N/A,,Partly Cloudy,0,2013-12-01 08:35:00
12:55 AM,39.2,39.2,100,30.29,8.0,Calm,Calm,-,N/A,,Clear,0,2013-12-01 08:55:00
1:15 AM,39.2,39.2,100,30.29,10.0,Calm,Calm,-,N/A,,Partly Cloudy,0,2013-12-01 09:15:00
1:35 AM,39.2,39.2,100,30.28,10.0,Calm,Calm,-,N/A,,Partly Cloudy,0,2013-12-01 09:35:00
1:55 AM,37.4,37.4,100,30.29,10.0,Calm,Calm,-,N/A,,Scattered Clouds,0,2013-12-01 09:55:00
2:15 AM,39.2,39.2,100,30.28,9.0,Calm,Calm,-,N/A,,Partly Cloudy,0,2013-12-01 10:15:00
2:35 AM,39.2,39.2,100,30.29,8.0,NW,3.5,-,N/A,,Clear,310,2013-12-01 10:35:00
2:55 AM,37.4,37.4,100,30.30,5.0,WNW,3.5,-,N/A,,Partly Cloudy,290,2013-12-01 10:55:00
3:15 AM,37.4,37.4,100,30.30,5.0,Calm,Calm,-,N/A,,Partly Cloudy,0,2013-12-01 11:15:00
3:35 AM,37.4,37.4,100,30.29,10.0,Calm,Calm,-,N/A,,Scattered Clouds,0,2013-12-01 11:35:00
3:55 AM,37.4,37.4,100,30.29,7.0,NW,4.6,-,N/A,,Scattered Clouds,320,2013-12-01 11:55:00
4:15 AM,37.4,37.4,100,30.31,5.0,Calm,Calm,-,N/A,,Clear,0,2013-12-01 12:15:00
4:35 AM,35.6,35.6,100,30.31,5.0,Calm,Calm,-,N/A,,Clear,0,2013-12-01 12:35:00
4:55 AM,35.6,35.6,100,30.30,4.0,Calm,Calm,-,N/A,,Clear,0,2013-12-01 12:55:00
5:15 AM,35.6,35.6,100,30.31,7.0,Calm,Calm,-,N/A,,Scattered Clouds,0,2013-12-01 13:15:00
5:35 AM,37.4,37.4,100,30.32,8.0,Calm,Calm,-,N/A,,Scattered Clouds,0,2013-12-01 13:35:00
5:55 AM,35.6,35.6,100,30.32,8.0,Calm,Calm,-,N/A,,Clear,0,2013-12-01 13:55:00
6:15 AM,35.6,35.6,100,30.33,8.0,West,3.5,-,N/A,,Partly Cloudy,270,2013-12-01 14:15:00
6:35 AM,35.6,35.6,100,30.34,5.0,WNW,3.5,-,N/A,,Partly Cloudy,290,2013-12-01 14:35:00
6:55 AM,35.6,35.6,100,30.34,6.0,Calm,Calm,-,N/A,,Clear,0,2013-12-01 14:55:00
7:15 AM,33.8,33.8,100,30.34,2.0,Calm,Calm,-,N/A,,Clear,0,2013-12-01 15:15:00
7:35 AM,35.6,35.6,100,30.34,5.0,NNE,3.5,-,N/A,,Clear,20,2013-12-01 15:35:00
7:55 AM,37.4,37.4,100,30.35,5.0,Calm,Calm,-,N/A,,Clear,0,2013-12-01 15:55:00
8:15 AM,41.0,41.0,100,30.35,7.0,Calm,Calm,-,N/A,,Clear,0,2013-12-01 16:15:00
8:35 AM,44.6,44.6,100,30.36,10.0,Calm,Calm,-,N/A,,Clear,0,2013-12-01 16:35:00
8:55 AM,46.4,46.4,100,30.35,10.0,Calm,Calm,-,N/A,,Clear,0,2013-12-01 16:55:00
9:15 AM,48.2,46.4,93,30.36,10.0,Calm,Calm,-,N/A,,Clear,0,2013-12-01 17:15:00
9:35 AM,50.0,46.4,87,30.37,10.0,West,4.6,-,N/A,,Clear,280,2013-12-01 17:35:00
9:55 AM,51.8,48.2,88,30.37,10.0,WNW,3.5,-,N/A,,Clear,300,2013-12-01 17:55:00
10:15 AM,53.6,46.4,77,30.36,10.0,Calm,Calm,-,N/A,,Clear,0,2013-12-01 18:15:00
10:35 AM,57.2,46.4,67,30.36,10.0,Calm,Calm,-,N/A,,Clear,0,2013-12-01 18:35:00
10:55 AM,59.0,46.4,63,30.36,10.0,NNW,3.5,-,N/A,,Clear,330,2013-12-01 18:55:00
11:15 AM,60.8,44.6,55,30.35,10.0,Calm,Calm,-,N/A,,Clear,0,2013-12-01 19:15:00
11:35 AM,62.6,44.6,52,30.35,10.0,Calm,Calm,-,N/A,,Clear,0,2013-12-01 19:35:00
11:55 AM,64.4,42.8,45,30.32,10.0,West,3.5,-,N/A,,Clear,260,2013-12-01 19:55:00
12:15 PM,64.4,42.8,45,30.32,10.0,Calm,Calm,-,N/A,,Clear,0,2013-12-01 20:15:00
12:35 PM,66.2,44.6,46,30.32,10.0,SW,3.5,-,N/A,,Clear,230,2013-12-01 20:35:00
12:55 PM,66.2,42.8,43,30.31,10.0,Calm,Calm,-,N/A,,Clear,0,2013-12-01 20:55:00
1:15 PM,68.0,42.8,40,30.29,10.0,Calm,Calm,-,N/A,,Clear,0,2013-12-01 21:15:00
1:35 PM,68.0,42.8,40,30.29,10.0,Calm,Calm,-,N/A,,Clear,0,2013-12-01 21:35:00
1:55 PM,68.0,42.8,40,30.28,10.0,West,3.5,-,N/A,,Clear,260,2013-12-01 21:55:00
2:15 PM,69.8,42.8,38,30.27,10.0,WNW,3.5,-,N/A,,Clear,290,2013-12-01 22:15:00
2:35 PM,71.6,44.6,38,30.26,10.0,NW,3.5,-,N/A,,Clear,310,2013-12-01 22:35:00
2:55 PM,69.8,42.8,38,30.26,10.0,NW,3.5,-,N/A,,Clear,320,2013-12-01 22:55:00
3:15 PM,71.6,42.8,35,30.26,10.0,NW,3.5,-,N/A,,Clear,310,2013-12-01 23:15:00
3:35 PM,69.8,44.6,40,30.25,10.0,WNW,4.6,-,N/A,,Clear,300,2013-12-01 23:35:00
3:55 PM,68.0,44.6,43,30.25,10.0,WNW,8.1,-,N/A,,Clear,290,2013-12-01 23:55:00
4:15 PM,66.2,44.6,46,30.26,10.0,WNW,8.1,-,N/A,,Clear,290,2013-12-02 00:15:00
4:35 PM,64.4,44.6,49,30.24,10.0,West,3.5,-,N/A,,Clear,270,2013-12-02 00:35:00
4:55 PM,62.6,44.6,52,30.24,10.0,NW,3.5,-,N/A,,Clear,310,2013-12-02 00:55:00
5:15 PM,59.0,42.8,55,30.25,10.0,WNW,4.6,-,N/A,,Clear,300,2013-12-02 01:15:00
5:35 PM,55.4,41.0,58,30.24,10.0,Calm,Calm,-,N/A,,Clear,0,2013-12-02 01:35:00
5:55 PM,57.2,41.0,55,30.25,10.0,WNW,4.6,-,N/A,,Clear,290,2013-12-02 01:55:00
6:15 PM,57.2,41.0,55,30.25,10.0,West,3.5,-,N/A,,Clear,280,2013-12-02 02:15:00
6:35 PM,48.2,39.2,71,30.25,10.0,Calm,Calm,-,N/A,,Clear,0,2013-12-02 02:35:00
6:55 PM,53.6,41.0,62,30.25,10.0,Calm,Calm,-,N/A,,Clear,0,2013-12-02 02:55:00
7:15 PM,50.0,42.8,76,30.25,10.0,NNW,3.5,-,N/A,,Clear,340,2013-12-02 03:15:00
7:35 PM,50.0,42.8,76,30.25,10.0,Calm,Calm,-,N/A,,Clear,0,2013-12-02 03:35:00
7:55 PM,50.0,42.8,76,30.25,10.0,Calm,Calm,-,N/A,,Clear,0,2013-12-02 03:55:00
8:15 PM,48.2,42.8,82,30.25,10.0,Calm,Calm,-,N/A,,Clear,0,2013-12-02 04:15:00
8:35 PM,48.2,42.8,82,30.25,10.0,Calm,Calm,-,N/A,,Clear,0,2013-12-02 04:35:00
8:55 PM,46.4,41.0,81,30.25,10.0,Calm,Calm,-,N/A,,Clear,0,2013-12-02 04:55:00
9:15 PM,44.6,41.0,87,30.26,10.0,Calm,Calm,-,N/A,,Clear,0,2013-12-02 05:15:00
9:35 PM,46.4,41.0,81,30.26,10.0,Calm,Calm,-,N/A,,Clear,0,2013-12-02 05:35:00
9:55 PM,46.4,44.6,93,30.26,10.0,NW,3.5,-,N/A,,Clear,310,2013-12-02 05:55:00
10:15 PM,44.6,41.0,87,30.27,10.0,Calm,Calm,-,N/A,,Clear,0,2013-12-02 06:15:00
10:35 PM,46.4,44.6,93,30.27,10.0,Calm,Calm,-,N/A,,Clear,0,2013-12-02 06:35:00
10:55 PM,44.6,42.8,93,30.27,5.0,Calm,Calm,-,N/A,,Clear,0,2013-12-02 06:55:00
11:15 PM,42.8,42.8,100,30.27,10.0,Calm,Calm,-,N/A,,Partly Cloudy,0,2013-12-02 07:15:00
11:35 PM,41.0,41.0,100,30.26,10.0,Calm,Calm,-,N/A,,Clear,0,2013-12-02 07:35:00
11:55 PM,41.0,41.0,100,30.25,10.0,NNE,3.5,-,N/A,,Clear,20,2013-12-02 07:55:00